Location: Columbia
(38.9520°N, 92.3340°W)
Time: 00:32:18
(UTC-06:00)

Iridium 52 - Visible Passes

Search period start: 20 December 2014 00:00
Search period end: 30 December 2014 00:00
Orbit: 776 x 779 km, 86.4° (Epoch: 19 December)

Date Brightness Start Highest point End Pass type
(mag) Time Alt. Az. Time Alt. Az. Time Alt. Az.
20 Dec 6.7 06:20:10 10° N 06:25:19 59° E 06:30:26 10° SSE visible
20 Dec 7.6 17:38:04 10° ESE 17:40:35 14° ENE 17:42:05 12° ENE visible
20 Dec 6.4 19:15:32 10° SSW 19:20:40 63° W 19:22:38 37° NNW visible
21 Dec 7.8 05:47:02 10° NNE 05:51:40 32° E 05:56:16 10° SE visible
21 Dec 5.9 18:42:00 10° S 18:47:09 70° E 18:50:34 22° N visible
21 Dec 8.9 20:26:16 10° W 20:28:24 12° WNW 20:30:33 10° NW visible
22 Dec 8.7 05:14:28 10° NE 05:17:53 17° ENE 05:21:16 10° ESE visible
22 Dec 6.3 06:53:52 10° NNW 06:58:53 50° W 07:03:53 10° SSW visible
22 Dec 6.5 18:09:02 10° SSE 18:13:45 37° E 18:18:30 10° NNE visible
22 Dec 8.2 19:50:27 10° SW 19:54:33 23° WNW 19:58:40 10° NNW visible
23 Dec 6.1 06:20:12 10° N 06:25:26 87° E 06:30:38 10° S visible
23 Dec 7.2 17:36:46 10° SE 17:40:29 20° E 17:44:12 10° NE visible
23 Dec 7.1 19:15:55 10° SSW 19:20:50 42° W 19:25:47 10° NNW visible
24 Dec 7.1 05:46:51 10° N 05:51:51 46° E 05:56:50 10° SSE visible
24 Dec 6.0 18:42:02 10° S 18:47:14 81° W 18:52:28 10° N visible
25 Dec 8.2 05:13:53 10° NNE 05:18:09 25° E 05:22:23 10° SE visible
25 Dec 6.7 06:54:13 10° NNW 06:58:53 34° W 07:03:31 10° SSW visible
25 Dec 6.1 18:08:43 10° SSE 18:13:46 54° E 18:18:50 10° NNE visible
25 Dec 8.7 19:51:40 10° WSW 19:54:50 16° WNW 19:58:00 10° NW visible
26 Dec 8.9 04:41:46 10° NE 04:44:18 14° ENE 04:46:50 10° ESE visible
26 Dec 6.0 06:20:20 10° N 06:25:30 65° W 06:30:38 10° S visible
26 Dec 6.8 17:36:00 10° SE 17:40:24 29° E 17:44:50 10° NNE visible
26 Dec 7.9 19:16:31 10° SW 19:21:01 29° W 19:25:33 10° NNW visible
27 Dec 6.3 05:46:47 10° N 05:51:59 68° E 05:57:09 10° S visible
27 Dec 6.7 18:42:16 10° SSW 18:47:21 55° W 18:52:28 10° N visible
28 Dec 7.5 05:13:34 10° NNE 05:18:22 36° E 05:23:07 10° SSE visible
28 Dec 7.1 06:54:45 10° NNW 06:58:50 24° W 07:02:53 10° SW visible
28 Dec 5.9 18:08:37 10° S 18:13:48 80° E 18:19:01 10° N visible
28 Dec 9.1 19:53:58 10° W 19:55:09 11° WNW 19:56:20 10° WNW visible
29 Dec 8.5 04:40:51 10° NNE 04:44:36 20° ENE 04:48:20 10° ESE visible
29 Dec 6.3 06:20:35 10° NNW 06:25:31 44° W 06:30:24 10° SSW visible
29 Dec 6.4 17:35:31 10° SSE 17:40:22 42° E 17:45:15 10° NNE visible
29 Dec 8.5 19:17:26 10° SW 19:21:15 21° WNW 19:25:06 10° NNW visible
